Orbital Elements at Epoch 2459000.5 (2020-May-31.0) TDB
Reference: JPL 19 (heliocentric ecliptic J2000)
Element | Value | Uncertainty (1-sigma) | Units |
e | .2528046072929945 | 4.5408e-08 | |
a | 2.406824826892551 | 1.2976e-08 | au |
q | 1.79836842170695 | 1.1172e-07 | au |
i | 8.45732520380067 | 5.1431e-06 | deg |
node | 274.5389850563214 | 2.942e-05 | deg |
peri | 21.53566559075917 | 3.1112e-05 | deg |
M | 260.6271940839104 | 1.4772e-05 | deg |
tp | 2459376.969851720977 (2021-Jun-11.46985172) | 5.8502e-05 | TDB |
period | 1363.845424008581 3.73 | 1.103e-05 3.02e-08 | d yr |
n | .263959532116108 | 2.1347e-09 | deg/d |
Q | 3.015281232078152 | 1.6257e-08 | au |
|
| | Orbit Determination Parameters
Additional Information
|